Location: Ostrava
(49.8330°N, 18.2830°E)
Time: 05:54:38
(UTC+02:00)

ISS - Pass Details

Date: 23 May 2021
Orbit: 417 x 422 km, 51.6° (Epoch: 13 June)

Event Time Altitude Azimuth Distance (km) Brightness Sun altitude
Rises 00:34:47 0° 287° (WNW) 2,370 0.3 -19.6°
Reaches altitude 10° 00:37:00 10° 278° (W) 1,504 -0.9 -19.6°
Enters shadow 00:38:13 19° 265° (W) 1,085 -1.7 -19.6°
